星链-34540(STARLINK-34540)

导读

STARLINK-34540是美国SpaceX公司于2025年9月19日发射的星链卫星,星链是全球知名低轨宽带卫星互联网项目。卫星采用平板设计搭配太阳电池阵,搭载Ku/Ka波段通信载荷与霍尔推进器,具备自主避撞能力。作为星链巨型星座的组成部分,它为全球尤其偏远地区提供高速宽带服务,服务期满后会主动离轨再入大气层烧毁。

基本信息
目录编号:
65657
目录名称:
STARLINK-34540
国际标识:
2025-211F
轨道中心:
EARTH
卫星名称:
星链-34540
卫星全名:
星链-34540(STARLINK-34540)
卫星状态:
在轨 (已飞行267 天)
发射日期:
2025-09-19 UTC
国别 :
美国 (US)
星等 :
--
轨道信息
数据来源 国际轨道数据 AOE轨道数据
星历时间 2026-06-13T09:53:38+0800
17小时前
查看轨道信息
2026-06-08T23:00:00+0800
5天前
查看轨道信息
半长轴 6927.6km 6927.662km
偏心率 0.0001018 0.0001424
轨道倾角 97.366° 97.386°
近地点辐角 140.556° 149.521°
升交点赤经 207.216° 202.961°
平近点角 219.574° 203.980°
近地点 548.757km 548.538km
远地点 550.169km 550.512km
周期 95.639分钟 95.640分钟
每日圈数 15.05666 15.056456
详细信息
固有亮度:
5
最大亮度:
2.5
卫星平台:
Starlink V1.0
覆盖范围:
全球
运营商:
太空探索技术公司
运营商所在国:
美国
制造商(研发单位):
太空探索技术公司
制造商所在国:
美国
使用方式:
暂无
卫星简介
Starlink 计划是 SpaceX 推出的全球卫星互联网项目,通过发射低轨道卫星,为全球尤其是偏远地区提供高速、低延迟的互联网服务。自 2019 年起,Starlink 已部署数千颗卫星,旨在缩小全球数字鸿沟,推动互联网普及。该项目还为军事、航空等行业提供通信支持,带来广泛经济效益。
2D轨道图
3D轨道图
轨道高度分析图
轨道倾角分析图
轨道综合分析图
查看轨道综合分析图